Tracking 29892 objects as of 21-Nov-2024
HD Live streaming from Space Station
objects crossing your sky now

OSCAR 29

Track OSCAR 29 now!
10-day predictions
OSCAR 29 is classified as:


NORAD ID: 18362
Int'l Code: 1987-080B
Perigee: 1,022.6 km
Apogee: 1,177.8 km
Inclination: 90.4 °
Period: 107.1 minutes
Semi major axis: 7471 km
RCS: 1.4883 m2 (large)
Launch date: September 16, 1987
Source: United States (US)
Launch site: AIR FORCE WESTERN TEST RANGE (AFWTR)
Your satellite tracking list
Your tracking list is empty




NASA's NSSDC Master Catalog

Two Line Element Set (TLE):
1 18362U 87080B   24326.14746715  .00000171  00000-0  27219-3 0  9998
2 18362  90.3704  65.4782 0103840 274.0115 210.2989 13.44358620823418
Source of the keplerian elements: AFSPC